Find Starlink 32580

NORAD ID: 62075 Int'l Des: 2024-217 Owner: SPXS Country: US Constellation: starlink operational
LEOCIRCULAR

Current View

Loading 3D Globe...

About Starlink 32580

Starlink 32580 (NORAD 62075) is a starlink constellation satellite (v2 mini) launched Nov 24, 2024 by SPXS of US. It operates in LEO, CIRCULAR orbit with a mass of 730.00 kg.

Upcoming Passes

Passes for default location (London). Set your location on the main map for personalized predictions.

Altitude History

Loading altitude history...

Two-Line Element Set

1 62075U 24217U 26265.49906260 .00025673 00000-0 76835-3 0 9998
2 62075 53.1610 346.2562 0001078 75.9026 284.2097 15.34400139103748
Epoch: Sep 22, 2026 • Age: 13 hours

Current Status

Altitude 468.2 km
Apogee / Perigee N/A
Velocity 7.64 km/s
Sub-Earth Point 51.73°N, 77.14°E
Launch Date Nov 24, 2024
Age 1.8 years
Type internet

Technical Details

Classification Payload
Mass 730.00 kg
Dry Mass 700.00 kg
Length 0.30 m
Span 29.00 m
Shape ? Box + pan
Manufacturer SPXS
Bus Type Starlink V2M
Phase Status In Orbit
Owner/State SPXS/US

Most Searched